Overview Statistics Trail Chart Weather Telemetry Raw packets
 

This is the latest recevied weather packets stored in our database for station/object AI5BL. If no packets are shown the sender has not sent any weather packets the latest 10 day(s).

<< 55 56 57 58 59 60 61 >>
Time Temp. Humidity Pressure Rain* Wind** Luminosity Snow
1788278791 31.67° C 69% 1021.2 hPa 0 mm - 170 W/m² -
1788278491 32.22° C 66% 1021.1 hPa 0 mm - 167 W/m² -
1788278190 32.78° C 67% 1021.1 hPa 0 mm - 586 W/m² -
1788277880 32.22° C 66% 1021.2 hPa 0 mm - 151 W/m² -
1788277580 32.22° C 63% 1020.9 hPa 0 mm - 195 W/m² -
1788277274 32.78° C 65% 1021.2 hPa 0 mm - 169 W/m² -
1788276964 32.78° C 63% 1021.2 hPa 0 mm - 666 W/m² -
1788276663 32.22° C 66% 1021 hPa 0 mm - 649 W/m² -
1788276358 32.78° C 65% 1021.1 hPa 0 mm - 139 W/m² -
1788276057 32.22° C 65% 1021.2 hPa 0 mm - 593 W/m² -
1788275753 32.22° C 69% 1021.1 hPa 0 mm - 556 W/m² -
1788275452 32.22° C 69% 1021.1 hPa 0 mm - 523 W/m² -
1788275150 31.67° C 70% 1021.2 hPa 0 mm - 510 W/m² -
1788274849 32.22° C 68% 1021.1 hPa 0 mm - 494 W/m² -
1788274549 31.67° C 69% 1021.2 hPa 0 mm - 459 W/m² -
1788274248 32.22° C 66% 1021.2 hPa 0 mm - 448 W/m² -
1788273944 31.67° C 67% 1021.3 hPa 0 mm - 422 W/m² -
1788273639 31.11° C 69% 1021.3 hPa 0 mm - 394 W/m² -
1788273335 31.67° C 76% 1021.2 hPa 0 mm - 388 W/m² -
1788273031 30.56° C 70% 1021.4 hPa 0 mm - 403 W/m² -
1788272731 31.11° C 71% 1021.4 hPa 0 mm - 390 W/m² -
1788272445 31.11° C 72% 1021.3 hPa 0 mm - 375 W/m² -
1788272126 30.56° C 72% 1021.4 hPa 0 mm - 348 W/m² -
1788271821 30° C 74% 1021.4 hPa 0 mm - 328 W/m² -
1788271520 29.44° C 79% 1021.3 hPa 0 mm - 308 W/m² -

* Rain latest hour (hover to see other rain measurements)
** Current wind speed in m/s (hover to see current wind gust speed)